Flag for Brazil Weather past 2 weeks in Fernando de Noronha, Pernambuco, Brazil

Now
75 °F

Passing clouds.


Feels Like: 75 °F
Forecast: 78 / 81 °F
Wind: N/A

Location: Natal Aeroporto

Current Time: May 24, 2015 at 5:36:52 AM

Latest Report: May 24, 2015 at 5:00 AM


Visibility: N/A

Pressure: 29.89 "Hg

Humidity: 89%

Dew point: 72 °F

Location of Fernando de NoronhaLocation

Historic Weather in Fernando de Noronha — Graph

°F

Fernando de Noronha temperature yesterday

Maximum temperature yesterday: 88 °F (at 2:00 PM)
Minimum temperature yesterday: 75 °F (at 5:00 AM)
Average temperature yesterday: 81 °F

Past Weeks' High & Low Weather Summary

 TemperatureHumidityPressure
High91 °F (May 11, 4:00 PM)94% (May 11, 4:00 AM)30.01 "Hg (May 11, 4:00 AM)
Low73 °F (May 12, 6:00 AM)52% (May 21, 12:00 PM)29.86 "Hg (May 10, 3:00 PM)
Average82 °F75%29.94 "Hg
* Reported May 9 4:00 AM — May 24 4:00 AM, Fernando de Noronha, Weather by CustomWeather, © 2015

Note: Actual official high and low records may vary slightly from our data, if they occured in-between our weather recording intervals... More about our weather records

Advertising

Fernando de Noronha weather history for previous 24 hours

 ConditionsComfort  
Time TempWeatherWind HumidityBarometerVisibility
4:00 AM
Sun, May 24
75 °FPassing clouds.N/A89%29.89 "HgN/A
3:00 AM77 °FPassing clouds.N/A89%29.92 "HgN/A
2:00 AM77 °FPassing clouds.N/A89%29.92 "HgN/A
1:00 AM77 °FPassing clouds.N/A89%29.95 "HgN/A
12:00 AM77 °FPassing clouds.N/A89%29.95 "HgN/A
11:00 PM
Sat, May 23
79 °FPassing clouds.N/A84%29.95 "HgN/A
10:00 PM79 °FPassing clouds.N/A84%29.98 "HgN/A
9:00 PM81 °FPassing clouds.N/A79%29.95 "HgN/A
8:00 PM81 °FPassing clouds.N/A79%29.95 "HgN/A
7:00 PM81 °FPassing clouds.N/A79%29.92 "HgN/A
6:00 PM84 °FPassing clouds.N/A66%29.92 "HgN/A
5:00 PM86 °FPassing clouds.N/A66%29.89 "HgN/A
4:00 PM86 °FScattered clouds.N/A66%29.89 "HgN/A
3:00 PM88 °FScattered clouds.N/A59%29.92 "HgN/A
2:00 PM88 °FScattered clouds.N/A62%29.95 "HgN/A
1:00 PM86 °FScattered clouds.N/A66%29.95 "HgN/A
12:00 PM86 °FScattered clouds.N/A62%29.98 "HgN/A
11:00 AM86 °FScattered clouds.N/A66%29.98 "HgN/A
10:00 AM84 °FLight rain. Partly sunny.N/A74%N/AN/A
9:00 AM82 °FPassing clouds.N/A74%29.98 "HgN/A
8:00 AM79 °FScattered clouds.N/A84%29.98 "HgN/A
7:00 AM75 °FScattered clouds.N/A89%29.95 "HgN/A
6:00 AM75 °FPassing clouds.N/A94%29.95 "HgN/A
5:00 AM75 °FPassing clouds.N/A94%29.92 "HgN/A
Weather by CustomWeather, © 2015

See weather overviewHow to use our weather pages